Tracking 25734 objects as of 27-May-2022
HD Live streaming from Space Station
objects crossing your sky now

COSMOS 1823 DEB

Track COSMOS 1823 DEB now!
10-day predictions


NORAD ID: 18802
Int'l Code: 1987-020AN
Perigee: 1,473.4 km
Apogee: 1,636.2 km
Inclination: 73.6 °
Period: 117.0 minutes
Semi major axis: 7925 km
RCS: 0.0581 m2 (small)
Launch date: February 20, 1987
Source: Commonwealth of Independent States (former USSR) (CIS)
Launch site: PLESETSK MISSILE AND SPACE COMPLEX (PKMTR)

Note: This is SATELLITE DEBRIS
aabbcc
Your satellite tracking list
Your tracking list is empty




NASA's NSSDC Master Catalog

Two Line Element Set (TLE):
1 18802U 87020AN  22147.33407741  .00000101  00000-0  98287-3 0  9990
2 18802  73.5909 244.6996 0102731 270.2170 148.1599 12.30382746544935
Source of the keplerian elements: AFSPC